DFJOE LEJR-GCLB

Flight info

Callsign DFJOE
Flight time 2h 6m
Altitude 25000
Route VJF L82 RUNAX UL82 IBALU/N0261F270 UN857 TERTO N857 LZR N871 GDV/N0150VFR VFR
Aircraft P46T/L-SBDGRWY/SB1

Departure

Time 2026-05-04 14:58
Airport Jerez Airport (LEJR)

Arrival

Time 2026-05-04 17:04
Airport El Berriel Aeroc Airport (GCLB)
Time Latitude Longitude Altitude Speed Heading
2026-05-04 14:41 36.74394 -6.06559 72 ft 0 kts 272°
2026-05-04 14:53 36.74394 -6.06564 77 ft 3 kts 275°
2026-05-04 14:53 36.74423 -6.06592 77 ft 9 kts 34°
2026-05-04 14:53 36.74430 -6.06505 72 ft 14 kts 91°
2026-05-04 14:53 36.74421 -6.06349 78 ft 20 kts 88°
2026-05-04 14:54 36.74503 -6.06219 83 ft 20 kts 26°
2026-05-04 14:54 36.74611 -6.06157 82 ft 17 kts 24°
2026-05-04 14:54 36.74714 -6.06104 82 ft 11 kts 20°
2026-05-04 14:54 36.74726 -6.06057 82 ft 10 kts 112°
2026-05-04 14:55 36.74715 -6.06024 82 ft 0 kts 111°
2026-05-04 14:57 36.74701 -6.05978 84 ft 14 kts 111°
2026-05-04 14:57 36.74594 -6.05953 82 ft 33 kts 202°
2026-05-04 14:57 36.74217 -6.06133 75 ft 83 kts 202°
2026-05-04 14:57 36.73655 -6.06397 102 ft 115 kts 205°
2026-05-04 14:58 36.72846 -6.06783 367 ft 129 kts 205°
2026-05-04 14:58 36.72117 -6.07119 842 ft 128 kts 204°
2026-05-04 14:58 36.71272 -6.07516 1284 ft 130 kts 206°
2026-05-04 14:58 36.70714 -6.07777 1607 ft 128 kts 207°
2026-05-04 14:59 36.69604 -6.08304 2285 ft 128 kts 207°
2026-05-04 14:59 36.68717 -6.08737 2563 ft 143 kts 207°
2026-05-04 14:59 36.66730 -6.09685 3228 ft 157 kts 206°
2026-05-04 15:00 36.65707 -6.10166 3656 ft 159 kts 205°
2026-05-04 15:00 36.64668 -6.10661 4097 ft 161 kts 206°
2026-05-04 15:00 36.63612 -6.11164 4540 ft 163 kts 206°
2026-05-04 15:01 36.61493 -6.12173 5421 ft 163 kts 207°
2026-05-04 15:01 36.60444 -6.12672 5891 ft 159 kts 206°
2026-05-04 15:01 36.59415 -6.13159 6344 ft 158 kts 207°
2026-05-04 15:01 36.58355 -6.13533 6755 ft 161 kts 189°
2026-05-04 15:02 36.57239 -6.13342 7190 ft 166 kts 167°
2026-05-04 15:02 36.56159 -6.12816 7586 ft 167 kts 165°
2026-05-04 15:02 36.55072 -6.12305 8021 ft 165 kts 166°
2026-05-04 15:02 36.53987 -6.11794 8416 ft 168 kts 166°
2026-05-04 15:03 36.52897 -6.11273 8793 ft 168 kts 167°
2026-05-04 15:03 36.51801 -6.10752 9182 ft 169 kts 167°
2026-05-04 15:03 36.50701 -6.10229 9595 ft 169 kts 168°
2026-05-04 15:03 36.49601 -6.09706 9992 ft 170 kts 168°
2026-05-04 15:04 36.48507 -6.09186 10339 ft 171 kts 168°
2026-05-04 15:04 36.47751 -6.08826 10565 ft 173 kts 168°
2026-05-04 15:04 36.46627 -6.08294 10926 ft 173 kts 169°
2026-05-04 15:04 36.45137 -6.07588 11403 ft 174 kts 169°
2026-05-04 15:05 36.44001 -6.07050 11751 ft 175 kts 169°
2026-05-04 15:05 36.43229 -6.06682 11997 ft 176 kts 169°
2026-05-04 15:05 36.41704 -6.05958 12471 ft 178 kts 169°
2026-05-04 15:05 36.40544 -6.05407 12832 ft 179 kts 169°
2026-05-04 15:06 36.39770 -6.05043 13070 ft 180 kts 169°
2026-05-04 15:06 36.38597 -6.04485 13426 ft 181 kts 169°
2026-05-04 15:06 36.37413 -6.03924 13775 ft 182 kts 169°
2026-05-04 15:07 36.35037 -6.02802 14416 ft 183 kts 169°
2026-05-04 15:07 36.33835 -6.02234 14727 ft 185 kts 169°
2026-05-04 15:07 36.32635 -6.01663 15049 ft 185 kts 169°
2026-05-04 15:07 36.31431 -6.01094 15379 ft 185 kts 169°
2026-05-04 15:08 36.30222 -6.00522 15700 ft 186 kts 169°
2026-05-04 15:08 36.29012 -5.99950 16039 ft 187 kts 169°
2026-05-04 15:08 36.27792 -5.99374 16370 ft 188 kts 170°
2026-05-04 15:08 36.26568 -5.98814 16696 ft 185 kts 174°
2026-05-04 15:09 36.25329 -5.98623 17014 ft 176 kts 192°
2026-05-04 15:09 36.24151 -5.98859 17340 ft 168 kts 207°
2026-05-04 15:09 36.23112 -5.99452 17674 ft 162 kts 221°
2026-05-04 15:10 36.21599 -6.01380 18326 ft 157 kts 238°
2026-05-04 15:10 36.20933 -6.02459 18612 ft 158 kts 238°
2026-05-04 15:10 36.19599 -6.04623 19216 ft 158 kts 238°
2026-05-04 15:11 36.18935 -6.05705 19508 ft 158 kts 238°
2026-05-04 15:11 36.18270 -6.06788 19796 ft 158 kts 238°
2026-05-04 15:11 36.17606 -6.07869 20083 ft 158 kts 238°
2026-05-04 15:11 36.16942 -6.08949 20387 ft 157 kts 239°
2026-05-04 15:12 36.16312 -6.09967 20963 ft 140 kts 239°
2026-05-04 15:12 36.15735 -6.10903 21337 ft 139 kts 240°
2026-05-04 15:12 36.15151 -6.11856 21659 ft 139 kts 240°
2026-05-04 15:12 36.14566 -6.12807 22005 ft 138 kts 240°
2026-05-04 15:13 36.13982 -6.13758 22328 ft 139 kts 240°
2026-05-04 15:13 36.13398 -6.14708 22651 ft 139 kts 240°
2026-05-04 15:13 36.12810 -6.15662 22968 ft 140 kts 240°
2026-05-04 15:13 36.12221 -6.16619 23302 ft 140 kts 240°
2026-05-04 15:14 36.11631 -6.17576 23639 ft 140 kts 240°
2026-05-04 15:14 36.11041 -6.18534 23929 ft 140 kts 240°
2026-05-04 15:14 36.10454 -6.19485 24217 ft 139 kts 240°
2026-05-04 15:14 36.09870 -6.20433 24514 ft 138 kts 240°
2026-05-04 15:15 36.09287 -6.21378 24815 ft 137 kts 241°
2026-05-04 15:15 36.08708 -6.22321 25058 ft 141 kts 241°
2026-05-04 15:15 36.08087 -6.23340 25056 ft 155 kts 240°
2026-05-04 15:16 36.06684 -6.25624 25070 ft 177 kts 239°
2026-05-04 15:16 36.05922 -6.26857 25072 ft 184 kts 239°
2026-05-04 15:16 36.04334 -6.29433 25072 ft 194 kts 239°
2026-05-04 15:17 36.03506 -6.30772 25069 ft 197 kts 239°
2026-05-04 15:17 36.01817 -6.33502 25067 ft 202 kts 239°
2026-05-04 15:17 36.00961 -6.34885 25068 ft 202 kts 239°
2026-05-04 15:18 36.00107 -6.36265 25068 ft 202 kts 239°
2026-05-04 15:18 35.99253 -6.37644 25067 ft 202 kts 239°
2026-05-04 15:18 35.98401 -6.39020 25066 ft 202 kts 239°
2026-05-04 15:19 35.96696 -6.41767 25066 ft 201 kts 238°
2026-05-04 15:19 35.95839 -6.43136 25066 ft 201 kts 238°
2026-05-04 15:19 35.94131 -6.45879 25066 ft 202 kts 238°
2026-05-04 15:20 35.93277 -6.47255 25073 ft 202 kts 239°
2026-05-04 15:20 35.92423 -6.48629 25073 ft 202 kts 239°
2026-05-04 15:20 35.91567 -6.50007 25073 ft 202 kts 239°
2026-05-04 15:20 35.90721 -6.51368 25073 ft 202 kts 239°
2026-05-04 15:21 35.89864 -6.52746 25073 ft 202 kts 239°
2026-05-04 15:21 35.89006 -6.54124 25072 ft 203 kts 239°
2026-05-04 15:21 35.87287 -6.56884 25074 ft 203 kts 239°
2026-05-04 15:22 35.86427 -6.58263 25075 ft 203 kts 239°
2026-05-04 15:22 35.85566 -6.59644 25075 ft 203 kts 239°
2026-05-04 15:22 35.83845 -6.62404 25075 ft 203 kts 239°
2026-05-04 15:23 35.82984 -6.63784 25078 ft 203 kts 239°
2026-05-04 15:23 35.82124 -6.65160 25078 ft 203 kts 239°
2026-05-04 15:23 35.81263 -6.66540 25078 ft 203 kts 239°
2026-05-04 15:23 35.80403 -6.67916 25077 ft 203 kts 239°
2026-05-04 15:24 35.78685 -6.70662 25077 ft 203 kts 239°
2026-05-04 15:24 35.76963 -6.73415 25077 ft 203 kts 239°
2026-05-04 15:25 35.76100 -6.74792 25077 ft 203 kts 239°
2026-05-04 15:25 35.75239 -6.76166 25077 ft 203 kts 239°
2026-05-04 15:25 35.74378 -6.77542 25077 ft 203 kts 239°
2026-05-04 15:26 35.72664 -6.80274 25074 ft 203 kts 239°
2026-05-04 15:26 35.71801 -6.81650 25075 ft 203 kts 239°
2026-05-04 15:26 35.70072 -6.84405 25079 ft 203 kts 239°
2026-05-04 15:27 35.69208 -6.85780 25076 ft 203 kts 239°
2026-05-04 15:27 35.67476 -6.88535 25076 ft 204 kts 239°
2026-05-04 15:28 35.65742 -6.91293 25075 ft 204 kts 239°
2026-05-04 15:28 35.64873 -6.92672 25075 ft 204 kts 239°
2026-05-04 15:28 35.63135 -6.95432 25075 ft 204 kts 239°
2026-05-04 15:29 35.62265 -6.96813 25078 ft 204 kts 239°
2026-05-04 15:30 35.58784 -7.02334 25078 ft 204 kts 239°
2026-05-04 15:30 35.56189 -7.06440 25077 ft 204 kts 239°
2026-05-04 15:31 35.54451 -7.09189 25042 ft 204 kts 239°
2026-05-04 15:31 35.53585 -7.10557 25067 ft 203 kts 239°
2026-05-04 15:32 35.50980 -7.14672 25070 ft 204 kts 239°
2026-05-04 15:32 35.49238 -7.17421 25070 ft 204 kts 239°
2026-05-04 15:33 35.47492 -7.20174 25073 ft 204 kts 239°
2026-05-04 15:34 35.44873 -7.24299 25078 ft 204 kts 239°
2026-05-04 15:34 35.43998 -7.25676 25078 ft 205 kts 239°
2026-05-04 15:34 35.42244 -7.28433 25079 ft 205 kts 239°
2026-05-04 15:35 35.40490 -7.31190 25082 ft 205 kts 239°
2026-05-04 15:35 35.39614 -7.32567 25082 ft 205 kts 239°
2026-05-04 15:35 35.38736 -7.33944 25082 ft 205 kts 239°
2026-05-04 15:36 35.36980 -7.36701 25082 ft 205 kts 239°
2026-05-04 15:36 35.36100 -7.38081 25082 ft 205 kts 239°
2026-05-04 15:36 35.35222 -7.39458 25082 ft 205 kts 239°
2026-05-04 15:37 35.34342 -7.40836 25079 ft 205 kts 239°
2026-05-04 15:37 35.33463 -7.42213 25080 ft 205 kts 239°
2026-05-04 15:37 35.32584 -7.43591 25080 ft 206 kts 239°
2026-05-04 15:37 35.26825 -7.52594 25079 ft 205 kts 239°
2026-05-04 15:38 35.19886 -7.63411 25082 ft 206 kts 239°
2026-05-04 15:38 35.12780 -7.74455 25084 ft 206 kts 239°
2026-05-04 15:38 35.05673 -7.85463 25085 ft 207 kts 239°
2026-05-04 15:38 34.98534 -7.96490 25061 ft 207 kts 239°
2026-05-04 15:39 34.91382 -8.07499 25082 ft 208 kts 239°
2026-05-04 15:39 34.84181 -8.18552 25084 ft 208 kts 239°
2026-05-04 15:39 34.69698 -8.40676 25055 ft 210 kts 238°
2026-05-04 15:40 34.62406 -8.51760 25057 ft 210 kts 238°
2026-05-04 15:40 34.55069 -8.62879 25057 ft 210 kts 238°
2026-05-04 15:40 34.48232 -8.73191 26336 ft 176 kts 240°
2026-05-04 15:40 34.41039 -8.82161 27096 ft 213 kts 227°
2026-05-04 15:41 34.31555 -8.91314 27105 ft 221 kts 228°
2026-05-04 15:41 34.21855 -9.00608 27103 ft 222 kts 227°
2026-05-04 15:41 34.12157 -9.09889 27097 ft 223 kts 226°
2026-05-04 15:41 34.02557 -9.19016 27093 ft 222 kts 226°
2026-05-04 15:42 33.92896 -9.28189 27089 ft 220 kts 226°
2026-05-04 15:42 33.83316 -9.37266 27089 ft 219 kts 226°
2026-05-04 15:42 33.73705 -9.46334 27088 ft 220 kts 226°
2026-05-04 15:42 33.64037 -9.55435 27091 ft 221 kts 225°
2026-05-04 15:43 33.54333 -9.64543 27090 ft 222 kts 225°
2026-05-04 15:43 33.44598 -9.73652 27088 ft 222 kts 225°
2026-05-04 15:43 33.34841 -9.82756 27088 ft 222 kts 225°
2026-05-04 15:43 33.25031 -9.91882 27081 ft 224 kts 224°
2026-05-04 15:44 33.15144 -10.01053 27089 ft 225 kts 224°
2026-05-04 15:44 33.05227 -10.10225 27084 ft 226 kts 224°
2026-05-04 15:44 32.95299 -10.19373 27085 ft 226 kts 224°
2026-05-04 15:44 32.85337 -10.28521 27080 ft 226 kts 224°
2026-05-04 15:45 32.75352 -10.37662 27080 ft 227 kts 223°
2026-05-04 15:45 32.65346 -10.46795 27085 ft 227 kts 223°
2026-05-04 15:45 32.55277 -10.55961 27074 ft 228 kts 223°
2026-05-04 15:45 32.45179 -10.65125 27084 ft 229 kts 223°
2026-05-04 15:46 32.35108 -10.74239 27082 ft 228 kts 223°
2026-05-04 15:46 32.25046 -10.83319 27078 ft 227 kts 223°
2026-05-04 15:46 32.14939 -10.92412 27081 ft 228 kts 223°
2026-05-04 15:46 32.05064 -11.01272 27077 ft 225 kts 223°
2026-05-04 15:47 31.95047 -11.10235 27071 ft 225 kts 223°
2026-05-04 15:47 31.85052 -11.19152 27055 ft 225 kts 223°
2026-05-04 15:47 31.75142 -11.27970 27071 ft 223 kts 223°
2026-05-04 15:47 31.65279 -11.36767 27072 ft 222 kts 223°
2026-05-04 15:48 31.55412 -11.45541 27058 ft 222 kts 223°
2026-05-04 15:48 31.45642 -11.54208 27071 ft 220 kts 224°
2026-05-04 15:48 31.26106 -11.71466 27044 ft 220 kts 224°
2026-05-04 15:49 31.16400 -11.80005 27072 ft 218 kts 224°
2026-05-04 15:49 31.06684 -11.88533 27069 ft 218 kts 224°
2026-05-04 15:49 30.96951 -11.97051 27072 ft 218 kts 224°
2026-05-04 15:49 30.87246 -12.05524 27075 ft 217 kts 224°
2026-05-04 15:50 30.77589 -12.13934 27072 ft 216 kts 224°
2026-05-04 15:50 30.68097 -12.22177 27071 ft 216 kts 224°
2026-05-04 15:50 30.62688 -12.26865 27071 ft 213 kts 225°
2026-05-04 15:50 30.61500 -12.27896 27070 ft 213 kts 225°
2026-05-04 15:51 30.60310 -12.28925 27070 ft 213 kts 225°
2026-05-04 15:51 30.59122 -12.29953 27073 ft 213 kts 225°
2026-05-04 15:51 30.57933 -12.30982 27070 ft 213 kts 225°
2026-05-04 15:51 30.56744 -12.32010 27069 ft 213 kts 225°
2026-05-04 15:52 30.55955 -12.32692 27071 ft 213 kts 225°
2026-05-04 15:52 30.54382 -12.34051 27074 ft 213 kts 225°
2026-05-04 15:52 30.53194 -12.35080 27074 ft 213 kts 225°
2026-05-04 15:52 30.52005 -12.36107 27074 ft 213 kts 225°
2026-05-04 15:53 30.51203 -12.36799 27074 ft 213 kts 225°
2026-05-04 15:53 30.49627 -12.38159 27076 ft 213 kts 225°
2026-05-04 15:53 30.48821 -12.38852 27074 ft 213 kts 225°
2026-05-04 15:53 30.47630 -12.39875 27071 ft 213 kts 225°
2026-05-04 15:54 30.46439 -12.40899 27073 ft 213 kts 225°
2026-05-04 15:54 30.45248 -12.41924 27083 ft 213 kts 225°
2026-05-04 15:54 30.44057 -12.42946 27073 ft 213 kts 225°
2026-05-04 15:54 30.42867 -12.43968 27076 ft 213 kts 225°
2026-05-04 15:55 30.41678 -12.44988 27073 ft 213 kts 225°
2026-05-04 15:55 30.40488 -12.46011 27073 ft 213 kts 225°
2026-05-04 15:55 30.39296 -12.47035 27073 ft 213 kts 225°
2026-05-04 15:55 30.38105 -12.48056 27079 ft 213 kts 225°
2026-05-04 15:56 30.36930 -12.49064 27076 ft 213 kts 225°
2026-05-04 15:56 30.35737 -12.50086 27069 ft 213 kts 225°
2026-05-04 15:56 30.34548 -12.51106 27065 ft 212 kts 225°
2026-05-04 15:56 30.33361 -12.52123 27065 ft 212 kts 225°
2026-05-04 15:57 30.32178 -12.53138 27068 ft 212 kts 225°
2026-05-04 15:57 30.30994 -12.54151 27068 ft 211 kts 225°
2026-05-04 15:57 30.29809 -12.55164 27070 ft 212 kts 225°
2026-05-04 15:57 30.28626 -12.56178 27067 ft 211 kts 225°
2026-05-04 15:58 30.27447 -12.57187 27067 ft 211 kts 225°
2026-05-04 15:58 30.26267 -12.58196 27063 ft 210 kts 225°
2026-05-04 15:58 30.25089 -12.59203 27063 ft 210 kts 225°
2026-05-04 15:58 30.23912 -12.60210 27063 ft 211 kts 225°
2026-05-04 15:59 30.22734 -12.61215 27062 ft 211 kts 225°
2026-05-04 15:59 30.21557 -12.62221 27062 ft 211 kts 225°
2026-05-04 15:59 30.20378 -12.63229 27065 ft 211 kts 225°
2026-05-04 15:59 30.19199 -12.64236 27065 ft 211 kts 225°
2026-05-04 16:00 30.18018 -12.65243 27071 ft 211 kts 225°
2026-05-04 16:00 30.16837 -12.66250 27067 ft 211 kts 225°
2026-05-04 16:00 30.15656 -12.67258 27067 ft 211 kts 225°
2026-05-04 16:00 30.14477 -12.68263 27072 ft 211 kts 225°
2026-05-04 16:01 30.13295 -12.69271 27068 ft 211 kts 225°
2026-05-04 16:01 30.12114 -12.70277 27068 ft 211 kts 225°
2026-05-04 16:01 30.10990 -12.71343 27066 ft 206 kts 232°
2026-05-04 16:01 30.10037 -12.72543 27068 ft 205 kts 234°
2026-05-04 16:02 30.09047 -12.73737 27068 ft 207 kts 232°
2026-05-04 16:02 30.08020 -12.74901 27068 ft 207 kts 231°
2026-05-04 16:02 30.05963 -12.77230 27070 ft 207 kts 231°
2026-05-04 16:03 30.04936 -12.78397 27073 ft 207 kts 231°
2026-05-04 16:03 30.03910 -12.79564 27073 ft 207 kts 231°
2026-05-04 16:03 30.02882 -12.80733 27073 ft 208 kts 231°
2026-05-04 16:03 30.01851 -12.81903 27073 ft 208 kts 231°
2026-05-04 16:04 30.00820 -12.83074 27071 ft 208 kts 231°
2026-05-04 16:04 29.98757 -12.85416 27068 ft 208 kts 231°
2026-05-04 16:04 29.97725 -12.86585 27068 ft 208 kts 231°
2026-05-04 16:05 29.96695 -12.87754 27068 ft 208 kts 231°
2026-05-04 16:05 29.95664 -12.88922 27071 ft 208 kts 231°
2026-05-04 16:05 29.93603 -12.91257 27068 ft 208 kts 231°
2026-05-04 16:06 29.92574 -12.92423 27070 ft 208 kts 231°
2026-05-04 16:06 29.89826 -12.95534 27072 ft 208 kts 231°
2026-05-04 16:07 29.88447 -12.97093 27071 ft 208 kts 231°
2026-05-04 16:07 29.85370 -13.00572 27067 ft 207 kts 231°
2026-05-04 16:08 29.84340 -13.01735 27067 ft 207 kts 231°
2026-05-04 16:08 29.81249 -13.05226 27067 ft 208 kts 231°
2026-05-04 16:09 29.79189 -13.07551 27070 ft 207 kts 231°
2026-05-04 16:09 29.77123 -13.09881 27070 ft 208 kts 231°
2026-05-04 16:10 29.75055 -13.12211 27073 ft 208 kts 231°
2026-05-04 16:11 29.71976 -13.15678 27064 ft 207 kts 231°
2026-05-04 16:11 29.70934 -13.16851 27064 ft 207 kts 231°
2026-05-04 16:12 29.67861 -13.20308 27064 ft 207 kts 231°
2026-05-04 16:12 29.64774 -13.23776 27066 ft 207 kts 231°
2026-05-04 16:13 29.62715 -13.26088 27066 ft 207 kts 231°
2026-05-04 16:13 29.60669 -13.28384 27063 ft 207 kts 231°
2026-05-04 16:14 29.58616 -13.30687 27063 ft 206 kts 231°
2026-05-04 16:14 29.56560 -13.32993 27063 ft 206 kts 231°
2026-05-04 16:15 29.53468 -13.36452 27065 ft 206 kts 231°
2026-05-04 16:16 29.51412 -13.38757 27064 ft 207 kts 231°
2026-05-04 16:16 29.48318 -13.42211 27064 ft 207 kts 231°
2026-05-04 16:17 29.46260 -13.44514 27064 ft 207 kts 231°
2026-05-04 16:18 29.43181 -13.47953 27064 ft 207 kts 231°
2026-05-04 16:18 29.42152 -13.49100 27044 ft 206 kts 231°
2026-05-04 16:19 29.39079 -13.52527 27068 ft 205 kts 231°
2026-05-04 16:19 29.37031 -13.54811 27068 ft 205 kts 231°
2026-05-04 16:20 29.33957 -13.58235 27065 ft 205 kts 231°
2026-05-04 16:20 29.31911 -13.60512 27064 ft 205 kts 231°
2026-05-04 16:21 29.28843 -13.63924 27063 ft 205 kts 231°
2026-05-04 16:22 29.26799 -13.66194 27061 ft 205 kts 231°
2026-05-04 16:22 29.23740 -13.69590 27060 ft 205 kts 231°
2026-05-04 16:23 29.20679 -13.72986 27055 ft 204 kts 231°
2026-05-04 16:24 29.16589 -13.77520 27055 ft 205 kts 231°
2026-05-04 16:25 29.14541 -13.79787 27055 ft 205 kts 231°
2026-05-04 16:26 29.10449 -13.84317 27056 ft 205 kts 231°
2026-05-04 16:26 29.07408 -13.87675 27059 ft 203 kts 231°
2026-05-04 16:27 29.05382 -13.89913 27058 ft 202 kts 231°
2026-05-04 16:28 29.02340 -13.93271 27059 ft 202 kts 231°
2026-05-04 16:28 28.99301 -13.96621 27059 ft 202 kts 231°
2026-05-04 16:29 28.95247 -14.01087 27058 ft 203 kts 231°
2026-05-04 16:30 28.92217 -14.04420 27061 ft 202 kts 231°
2026-05-04 16:31 28.90193 -14.06647 27060 ft 202 kts 231°
2026-05-04 16:31 28.87156 -14.09985 27060 ft 202 kts 231°
2026-05-04 16:32 28.84055 -14.13398 26586 ft 218 kts 230°
2026-05-04 16:33 28.81812 -14.15858 25986 ft 228 kts 230°
2026-05-04 16:33 28.79492 -14.18402 25373 ft 234 kts 230°
2026-05-04 16:34 28.77135 -14.20984 24747 ft 234 kts 230°
2026-05-04 16:34 28.75963 -14.22266 24444 ft 233 kts 229°
2026-05-04 16:35 28.72480 -14.26078 23506 ft 230 kts 229°
2026-05-04 16:35 28.69065 -14.29812 22579 ft 226 kts 229°
2026-05-04 16:36 28.67936 -14.31046 22283 ft 225 kts 229°
2026-05-04 16:36 28.65683 -14.33507 21691 ft 224 kts 229°
2026-05-04 16:37 28.63430 -14.35965 21099 ft 224 kts 229°
2026-05-04 16:37 28.62303 -14.37195 20804 ft 224 kts 229°
2026-05-04 16:37 28.60051 -14.39651 20213 ft 224 kts 228°
2026-05-04 16:38 28.58188 -14.41680 19724 ft 222 kts 228°
2026-05-04 16:39 28.54510 -14.45687 18755 ft 219 kts 228°
2026-05-04 16:39 28.52669 -14.47691 18264 ft 219 kts 227°
2026-05-04 16:40 28.50485 -14.50065 17666 ft 216 kts 228°
2026-05-04 16:40 28.48325 -14.52413 17101 ft 214 kts 228°
2026-05-04 16:41 28.46180 -14.54743 16537 ft 213 kts 228°
2026-05-04 16:41 28.43029 -14.58163 15709 ft 208 kts 228°
2026-05-04 16:42 28.39910 -14.61544 14893 ft 205 kts 228°
2026-05-04 16:43 28.37862 -14.63765 14356 ft 202 kts 229°
2026-05-04 16:43 28.35832 -14.65964 13820 ft 201 kts 229°
2026-05-04 16:43 28.34822 -14.67058 13540 ft 200 kts 229°
2026-05-04 16:44 28.30800 -14.71410 12483 ft 200 kts 229°
2026-05-04 16:45 28.28776 -14.73599 11952 ft 202 kts 228°
2026-05-04 16:46 28.25713 -14.76898 11149 ft 203 kts 228°
2026-05-04 16:46 28.23666 -14.79109 10611 ft 203 kts 228°
2026-05-04 16:47 28.21612 -14.81324 10079 ft 204 kts 227°
2026-05-04 16:47 28.19546 -14.83553 9515 ft 205 kts 227°
2026-05-04 16:48 28.16433 -14.86907 8697 ft 206 kts 227°
2026-05-04 16:48 28.15392 -14.88028 8424 ft 206 kts 227°
2026-05-04 16:49 28.13320 -14.90258 7882 ft 207 kts 226°
2026-05-04 16:49 28.11232 -14.92506 7337 ft 207 kts 226°
2026-05-04 16:50 28.09293 -14.94589 6828 ft 205 kts 226°
2026-05-04 16:50 28.07245 -14.96793 6288 ft 203 kts 226°
2026-05-04 16:51 28.05186 -14.99002 5745 ft 205 kts 226°
2026-05-04 16:51 28.04149 -15.00117 5475 ft 205 kts 226°
2026-05-04 16:51 28.02069 -15.02351 4935 ft 207 kts 225°
2026-05-04 16:52 27.99975 -15.04597 4378 ft 210 kts 225°
2026-05-04 16:52 27.98910 -15.05737 4101 ft 211 kts 225°
2026-05-04 16:53 27.96790 -15.08007 3537 ft 209 kts 225°
2026-05-04 16:53 27.93577 -15.11453 2709 ft 213 kts 224°
2026-05-04 16:54 27.92507 -15.12597 2424 ft 210 kts 224°
2026-05-04 16:55 27.88320 -15.17075 1322 ft 207 kts 224°
2026-05-04 16:55 27.86212 -15.19326 776 ft 210 kts 225°
2026-05-04 16:56 27.84545 -15.21873 393 ft 193 kts 256°
2026-05-04 16:56 27.83612 -15.26118 388 ft 187 kts 260°
2026-05-04 16:57 27.83299 -15.27544 441 ft 183 kts 261°
2026-05-04 16:57 27.82692 -15.30339 487 ft 183 kts 260°
2026-05-04 16:58 27.81737 -15.34745 503 ft 202 kts 259°
2026-05-04 16:58 27.81397 -15.36292 494 ft 203 kts 259°
2026-05-04 16:59 27.80717 -15.39399 493 ft 205 kts 259°
2026-05-04 17:00 27.78970 -15.44889 494 ft 179 kts 244°
2026-05-04 17:00 27.77462 -15.48225 477 ft 151 kts 250°
2026-05-04 17:01 27.76568 -15.50333 479 ft 146 kts 246°
2026-05-04 17:01 27.75838 -15.52292 428 ft 123 kts 265°
2026-05-04 17:02 27.76192 -15.53357 249 ft 87 kts 334°
2026-05-04 17:02 27.77170 -15.53213 230 ft 77 kts 39°
2026-05-04 17:03 27.77497 -15.52716 192 ft 81 kts 62°
2026-05-04 17:03 27.77743 -15.52138 161 ft 82 kts 63°
2026-05-04 17:03 27.78157 -15.50964 20 ft 73 kts 64°
2026-05-04 17:04 27.78326 -15.50501 13 ft 5 kts 69°
2026-05-04 17:04 27.78325 -15.50512 13 ft 19 kts 250°
2026-05-04 17:05 27.78219 -15.50802 15 ft 20 kts 249°
2026-05-04 17:05 27.78247 -15.51023 23 ft 15 kts 334°
2026-05-04 17:06 27.78277 -15.51078 29 ft 0 kts 309°